Location: Ferchesar
(52.6477°N, 12.4298°E)
Time: 23:58:48
(UTC+01:00)

Transit 4A - Pass Details

Date: 09 December 2021
Orbit: 864 x 981 km, 66.8° (Epoch: 19 January)

Event Time Altitude Azimuth Distance (km) Brightness Sun altitude
Rises 16:38:23 0° 153° (SSE) 3,464 10.9 -6.2°
Reaches altitude 10° 16:42:18 10° 127° (SE) 2,552 10.0 -6.7°
Maximum altitude 16:44:51 13° 101° (E) 2,359 9.6 -7.0°
Drops below altitude 10° 16:47:25 10° 75° (ENE) 2,593 9.6 -7.4°
Enters shadow 16:48:06 - 70° (ENE) 2,716 9.7 -7.5°
